Year,Month,Day,Hour,Minute,Value (Times are PST for temperature in C)
2017,09,06,00,00,20.70
2017,09,06,00,01,20.70
2017,09,06,00,02,20.70
2017,09,06,00,03,20.70
2017,09,06,00,04,20.70
2017,09,06,00,05,20.70
2017,09,06,00,06,20.70
2017,09,06,00,07,20.60
2017,09,06,00,08,20.60
2017,09,06,00,09,20.60
2017,09,06,00,10,20.60
2017,09,06,00,11,20.60
2017,09,06,00,12,20.60
2017,09,06,00,13,20.60
2017,09,06,00,14,20.60
2017,09,06,00,15,20.60
2017,09,06,00,16,20.60
2017,09,06,00,17,20.60
2017,09,06,00,18,20.60
2017,09,06,00,19,20.60
2017,09,06,00,20,20.50
2017,09,06,00,21,20.50
2017,09,06,00,22,20.50
2017,09,06,00,23,20.50
2017,09,06,00,24,20.50
2017,09,06,00,25,20.40
2017,09,06,00,26,20.40
2017,09,06,00,27,20.40
2017,09,06,00,28,20.40
2017,09,06,00,29,20.40
2017,09,06,00,30,20.40
2017,09,06,00,31,20.40
2017,09,06,00,32,20.30
2017,09,06,00,33,20.30
2017,09,06,00,34,20.30
2017,09,06,00,35,20.30
2017,09,06,00,36,20.30
2017,09,06,00,37,20.20
2017,09,06,00,38,20.20
2017,09,06,00,39,20.20
2017,09,06,00,40,20.20
2017,09,06,00,41,20.20
2017,09,06,00,42,20.10
2017,09,06,00,43,20.10
2017,09,06,00,44,20.10
2017,09,06,00,45,20.10
2017,09,06,00,46,20.00
2017,09,06,00,47,20.10
2017,09,06,00,48,20.00
2017,09,06,00,49,20.00
2017,09,06,00,50,20.00
2017,09,06,00,51,20.10
2017,09,06,00,52,20.10
2017,09,06,00,53,20.00
2017,09,06,00,54,20.00
2017,09,06,00,55,20.00
2017,09,06,00,56,20.00
2017,09,06,00,57,20.00
2017,09,06,00,58,20.00
2017,09,06,00,59,20.00
2017,09,06,01,00,20.00
2017,09,06,01,01,20.00
2017,09,06,01,02,20.00
2017,09,06,01,03,20.00
2017,09,06,01,04,20.00
2017,09,06,01,05,20.00
2017,09,06,01,06,20.00
2017,09,06,01,07,20.00
2017,09,06,01,08,20.00
2017,09,06,01,09,20.00
2017,09,06,01,10,20.00
2017,09,06,01,11,20.00
2017,09,06,01,12,20.00
2017,09,06,01,13,20.00
2017,09,06,01,14,19.90
2017,09,06,01,15,19.90
2017,09,06,01,16,20.00
2017,09,06,01,17,20.00
2017,09,06,01,18,20.00
2017,09,06,01,19,20.00
2017,09,06,01,20,20.10
2017,09,06,01,21,20.10
2017,09,06,01,22,20.10
2017,09,06,01,23,20.10
2017,09,06,01,24,20.20
2017,09,06,01,25,20.20
2017,09,06,01,26,20.20
2017,09,06,01,27,20.20
2017,09,06,01,28,20.20
2017,09,06,01,29,20.20
2017,09,06,01,30,20.30
2017,09,06,01,31,20.30
2017,09,06,01,32,20.20
2017,09,06,01,33,20.20
2017,09,06,01,34,20.20
2017,09,06,01,35,20.20
2017,09,06,01,36,20.20
2017,09,06,01,37,20.20
2017,09,06,01,38,20.20
2017,09,06,01,39,20.20
2017,09,06,01,40,20.20
2017,09,06,01,41,20.20
2017,09,06,01,42,20.20
2017,09,06,01,43,20.20
2017,09,06,01,44,20.10
2017,09,06,01,45,20.10
2017,09,06,01,46,20.10
2017,09,06,01,47,20.00
2017,09,06,01,48,20.00
2017,09,06,01,49,20.00
2017,09,06,01,50,19.90
2017,09,06,01,51,19.90
2017,09,06,01,52,19.90
2017,09,06,01,53,19.90
2017,09,06,01,54,19.90
2017,09,06,01,55,19.80
2017,09,06,01,56,19.80
2017,09,06,01,57,19.80
2017,09,06,01,58,19.80
2017,09,06,01,59,19.80
2017,09,06,02,00,19.80
2017,09,06,02,01,19.80
2017,09,06,02,02,19.70
2017,09,06,02,03,19.70
2017,09,06,02,04,19.70
2017,09,06,02,05,19.70
2017,09,06,02,06,19.70
2017,09,06,02,07,19.70
2017,09,06,02,08,19.70
2017,09,06,02,09,19.70
2017,09,06,02,10,19.70
2017,09,06,02,11,19.70
2017,09,06,02,12,19.70
2017,09,06,02,13,19.60
2017,09,06,02,14,19.60
2017,09,06,02,15,19.60
2017,09,06,02,16,19.60
2017,09,06,02,17,19.70
2017,09,06,02,18,19.70
2017,09,06,02,19,19.70
2017,09,06,02,20,19.70
2017,09,06,02,21,19.70
2017,09,06,02,22,19.70
2017,09,06,02,23,19.70
2017,09,06,02,24,19.70
2017,09,06,02,25,19.60
2017,09,06,02,26,19.60
2017,09,06,02,27,19.60
2017,09,06,02,28,19.60
2017,09,06,02,29,19.60
2017,09,06,02,30,19.60
2017,09,06,02,31,19.60
2017,09,06,02,32,19.60
2017,09,06,02,33,19.60
2017,09,06,02,34,19.60
2017,09,06,02,35,19.60
2017,09,06,02,36,19.60
2017,09,06,02,37,19.60
2017,09,06,02,38,19.60
2017,09,06,02,39,19.60
2017,09,06,02,40,19.60
2017,09,06,02,41,19.60
2017,09,06,02,42,19.60
2017,09,06,02,43,19.60
2017,09,06,02,44,19.50
2017,09,06,02,45,19.50
2017,09,06,02,46,19.50
2017,09,06,02,47,19.40
2017,09,06,02,48,19.40
2017,09,06,02,49,19.30
2017,09,06,02,50,19.30
2017,09,06,02,51,19.30
2017,09,06,02,52,19.20
2017,09,06,02,53,19.20
2017,09,06,02,54,19.10
2017,09,06,02,55,19.10
2017,09,06,02,56,19.00
2017,09,06,02,57,19.00
2017,09,06,02,58,19.00
2017,09,06,02,59,18.90
2017,09,06,03,00,18.90
2017,09,06,03,01,18.90
2017,09,06,03,02,18.80
2017,09,06,03,03,18.80
2017,09,06,03,04,18.80
2017,09,06,03,05,18.80
2017,09,06,03,06,18.80
2017,09,06,03,07,18.80
2017,09,06,03,08,18.80
2017,09,06,03,09,18.80
2017,09,06,03,10,18.80
2017,09,06,03,11,18.80
2017,09,06,03,12,18.80
2017,09,06,03,13,18.80
2017,09,06,03,14,18.80
2017,09,06,03,15,18.70
2017,09,06,03,16,18.70
2017,09,06,03,17,18.70
2017,09,06,03,18,18.70
2017,09,06,03,19,18.70
2017,09,06,03,20,18.70
2017,09,06,03,21,18.70
2017,09,06,03,22,18.70
2017,09,06,03,23,18.70
2017,09,06,03,24,18.70
2017,09,06,03,25,18.70
2017,09,06,03,26,18.70
2017,09,06,03,27,18.70
2017,09,06,03,28,18.70
2017,09,06,03,29,18.70
2017,09,06,03,30,18.70
2017,09,06,03,31,18.70
2017,09,06,03,32,18.70
2017,09,06,03,33,18.70
2017,09,06,03,34,18.70
2017,09,06,03,35,18.70
2017,09,06,03,36,18.70
2017,09,06,03,37,18.70
2017,09,06,03,38,18.60
2017,09,06,03,39,18.70
2017,09,06,03,40,18.70
2017,09,06,03,41,18.60
2017,09,06,03,42,18.60
2017,09,06,03,43,18.60
2017,09,06,03,44,18.60
2017,09,06,03,45,18.60
2017,09,06,03,46,18.60
2017,09,06,03,47,18.60
2017,09,06,03,48,18.60
2017,09,06,03,49,18.60
2017,09,06,03,50,18.50
2017,09,06,03,51,18.50
2017,09,06,03,52,18.40
2017,09,06,03,53,18.20
2017,09,06,03,54,18.20
2017,09,06,03,55,18.10
2017,09,06,03,56,18.00
2017,09,06,03,57,17.90
2017,09,06,03,58,17.90
2017,09,06,03,59,17.80
2017,09,06,04,00,17.80
2017,09,06,04,01,17.80
2017,09,06,04,02,17.80
2017,09,06,04,03,17.80
2017,09,06,04,04,17.70
2017,09,06,04,05,17.70
2017,09,06,04,06,17.70
2017,09,06,04,07,17.70
2017,09,06,04,08,17.70
2017,09,06,04,09,17.70
2017,09,06,04,10,17.70
2017,09,06,04,11,17.70
2017,09,06,04,12,17.70
2017,09,06,04,13,17.60
2017,09,06,04,14,17.60
2017,09,06,04,15,17.60
2017,09,06,04,16,17.60
2017,09,06,04,17,17.60
2017,09,06,04,18,17.60
2017,09,06,04,19,17.60
2017,09,06,04,20,17.60
2017,09,06,04,21,17.60
2017,09,06,04,22,17.60
2017,09,06,04,23,17.60
2017,09,06,04,24,17.50
2017,09,06,04,25,17.50
2017,09,06,04,26,17.50
2017,09,06,04,27,17.50
2017,09,06,04,28,17.40
2017,09,06,04,29,17.40
2017,09,06,04,30,17.40
2017,09,06,04,31,17.40
2017,09,06,04,32,17.40
2017,09,06,04,33,17.40
2017,09,06,04,34,17.40
2017,09,06,04,35,17.30
2017,09,06,04,36,17.30
2017,09,06,04,37,17.30
2017,09,06,04,38,17.30
2017,09,06,04,39,17.30
2017,09,06,04,40,17.40
2017,09,06,04,41,17.40
2017,09,06,04,42,17.40
2017,09,06,04,43,17.40
2017,09,06,04,44,17.40
2017,09,06,04,45,17.40
2017,09,06,04,46,17.50
2017,09,06,04,47,17.50
2017,09,06,04,48,17.50
2017,09,06,04,49,17.50
2017,09,06,04,50,17.50
2017,09,06,04,51,17.60
2017,09,06,04,52,17.50
2017,09,06,04,53,17.50
2017,09,06,04,54,17.50
2017,09,06,04,55,17.50
2017,09,06,04,56,17.50
2017,09,06,04,57,17.50
2017,09,06,04,58,17.50
2017,09,06,04,59,17.50
2017,09,06,05,00,17.40
2017,09,06,05,01,17.40
2017,09,06,05,02,17.30
2017,09,06,05,03,17.30
2017,09,06,05,04,17.20
2017,09,06,05,05,17.20
2017,09,06,05,06,17.10
2017,09,06,05,07,17.10
2017,09,06,05,08,17.10
2017,09,06,05,09,17.00
2017,09,06,05,10,17.00
2017,09,06,05,11,17.00
2017,09,06,05,12,16.90
2017,09,06,05,13,16.90
2017,09,06,05,14,16.90
2017,09,06,05,15,16.90
2017,09,06,05,16,16.90
2017,09,06,05,17,16.80
2017,09,06,05,18,16.80
2017,09,06,05,19,16.80
2017,09,06,05,20,16.80
2017,09,06,05,21,16.80
2017,09,06,05,22,16.80
2017,09,06,05,23,16.80
2017,09,06,05,24,16.80
2017,09,06,05,25,16.70
2017,09,06,05,26,16.70
2017,09,06,05,27,16.70
2017,09,06,05,28,16.70
2017,09,06,05,29,16.70
2017,09,06,05,30,16.70
2017,09,06,05,31,16.70
2017,09,06,05,32,16.70
2017,09,06,05,33,16.60
2017,09,06,05,34,16.60
2017,09,06,05,35,16.60
2017,09,06,05,36,16.60
2017,09,06,05,37,16.60
2017,09,06,05,38,16.60
2017,09,06,05,39,16.60
2017,09,06,05,40,16.60
2017,09,06,05,41,16.50
2017,09,06,05,42,16.50
2017,09,06,05,43,16.50
2017,09,06,05,44,16.40
2017,09,06,05,45,16.40
2017,09,06,05,46,16.40
2017,09,06,05,47,16.40
2017,09,06,05,48,16.40
2017,09,06,05,49,16.40
2017,09,06,05,50,16.40
2017,09,06,05,51,16.40
2017,09,06,05,52,16.30
2017,09,06,05,53,16.30
2017,09,06,05,54,16.30
2017,09,06,05,55,16.30
2017,09,06,05,56,16.30
2017,09,06,05,57,16.30
2017,09,06,05,58,16.30
2017,09,06,05,59,16.20
2017,09,06,06,00,16.20
2017,09,06,06,01,16.20
2017,09,06,06,02,16.20
2017,09,06,06,03,16.20
2017,09,06,06,04,16.20
2017,09,06,06,05,16.20
2017,09,06,06,06,16.10
2017,09,06,06,07,16.10
2017,09,06,06,08,16.10
2017,09,06,06,09,16.10
2017,09,06,06,10,16.10
2017,09,06,06,11,16.10
2017,09,06,06,12,16.10
2017,09,06,06,13,16.10
2017,09,06,06,14,16.10
2017,09,06,06,15,16.10
2017,09,06,06,16,16.00
2017,09,06,06,17,16.10
2017,09,06,06,18,16.00
2017,09,06,06,19,16.00
2017,09,06,06,20,16.10
2017,09,06,06,21,16.00
2017,09,06,06,22,16.10
2017,09,06,06,23,16.10
2017,09,06,06,24,16.10
2017,09,06,06,25,16.00
2017,09,06,06,26,16.00
2017,09,06,06,27,16.00
2017,09,06,06,28,16.00
2017,09,06,06,29,16.00
2017,09,06,06,30,16.00
2017,09,06,06,31,15.90
2017,09,06,06,32,16.00
2017,09,06,06,33,15.90
2017,09,06,06,34,15.90
2017,09,06,06,35,15.90
2017,09,06,06,36,15.90
2017,09,06,06,37,15.90
2017,09,06,06,38,15.80
2017,09,06,06,39,15.80
2017,09,06,06,40,15.80
2017,09,06,06,41,15.80
2017,09,06,06,42,15.80
2017,09,06,06,43,15.80
2017,09,06,06,44,15.80
2017,09,06,06,45,15.80
2017,09,06,06,46,15.80
2017,09,06,06,47,15.80
2017,09,06,06,48,15.80
2017,09,06,06,49,15.80
2017,09,06,06,50,15.80
2017,09,06,06,51,15.80
2017,09,06,06,52,15.80
2017,09,06,06,53,15.90
2017,09,06,06,54,15.90
2017,09,06,06,55,15.90
2017,09,06,06,56,15.90
2017,09,06,06,57,15.90
2017,09,06,06,58,16.00
2017,09,06,06,59,16.00
2017,09,06,07,00,16.00
2017,09,06,07,01,16.00
2017,09,06,07,02,16.00
2017,09,06,07,03,16.00
2017,09,06,07,04,16.00
2017,09,06,07,05,15.90
2017,09,06,07,06,15.90
2017,09,06,07,07,15.90
2017,09,06,07,08,15.80
2017,09,06,07,09,15.80
2017,09,06,07,10,15.80
2017,09,06,07,11,15.80
2017,09,06,07,12,15.70
2017,09,06,07,13,15.70
2017,09,06,07,14,15.70
2017,09,06,07,15,15.60
2017,09,06,07,16,15.60
2017,09,06,07,17,15.60
2017,09,06,07,18,15.60
2017,09,06,07,19,15.60
2017,09,06,07,20,15.60
2017,09,06,07,21,15.60
2017,09,06,07,22,15.60
2017,09,06,07,23,15.60
2017,09,06,07,24,15.60
2017,09,06,07,25,15.60
2017,09,06,07,26,15.60
2017,09,06,07,27,15.60
2017,09,06,07,28,15.60
2017,09,06,07,29,15.70
2017,09,06,07,30,15.60
2017,09,06,07,31,15.60
2017,09,06,07,32,15.70
2017,09,06,07,33,15.60
2017,09,06,07,34,15.60
2017,09,06,07,35,15.60
2017,09,06,07,36,15.60
2017,09,06,07,37,15.60
2017,09,06,07,38,15.50
2017,09,06,07,39,15.50
2017,09,06,07,40,15.40
2017,09,06,07,41,15.40
2017,09,06,07,42,15.30
2017,09,06,07,43,15.30
2017,09,06,07,44,15.20
2017,09,06,07,45,15.20
2017,09,06,07,46,15.20
2017,09,06,07,47,15.10
2017,09,06,07,48,15.10
2017,09,06,07,49,15.10
2017,09,06,07,50,15.10
2017,09,06,07,51,15.10
2017,09,06,07,52,15.10
2017,09,06,07,53,15.10
2017,09,06,07,54,15.10
2017,09,06,07,55,15.20
2017,09,06,07,56,15.20
2017,09,06,07,57,15.30
2017,09,06,07,58,15.30
2017,09,06,07,59,15.30
2017,09,06,08,00,15.40
2017,09,06,08,01,15.40
2017,09,06,08,02,15.50
2017,09,06,08,03,15.60
2017,09,06,08,04,15.60
2017,09,06,08,05,15.60
2017,09,06,08,06,15.70
2017,09,06,08,07,15.70
2017,09,06,08,08,15.80
2017,09,06,08,09,15.80
2017,09,06,08,10,15.80
2017,09,06,08,11,15.80
2017,09,06,08,12,15.90
2017,09,06,08,13,15.90
2017,09,06,08,14,16.00
2017,09,06,08,15,16.00
2017,09,06,08,16,16.10
2017,09,06,08,17,16.10
2017,09,06,08,18,16.20
2017,09,06,08,19,16.20
2017,09,06,08,20,16.30
2017,09,06,08,21,16.30
2017,09,06,08,22,16.30
2017,09,06,08,23,16.40
2017,09,06,08,24,16.40
2017,09,06,08,25,16.40
2017,09,06,08,26,16.50
2017,09,06,08,27,16.50
2017,09,06,08,28,16.50
2017,09,06,08,29,16.60
2017,09,06,08,30,16.60
2017,09,06,08,31,16.60
2017,09,06,08,32,16.60
2017,09,06,08,33,16.60
2017,09,06,08,34,16.60
2017,09,06,08,35,16.70
2017,09,06,08,36,16.70
2017,09,06,08,37,16.70
2017,09,06,08,38,16.70
2017,09,06,08,39,16.70
2017,09,06,08,40,16.80
2017,09,06,08,41,16.80
2017,09,06,08,42,16.80
2017,09,06,08,43,16.80
2017,09,06,08,44,16.80
2017,09,06,08,45,16.80
2017,09,06,08,46,16.80
2017,09,06,08,47,16.80
2017,09,06,08,48,16.80
2017,09,06,08,49,16.80
2017,09,06,08,50,16.90
2017,09,06,08,51,16.80
2017,09,06,08,52,16.90
2017,09,06,08,53,16.90
2017,09,06,08,54,16.90
2017,09,06,08,55,16.90
2017,09,06,08,56,17.00
2017,09,06,08,57,17.00
2017,09,06,08,58,17.00
2017,09,06,08,59,17.10
2017,09,06,09,00,17.10
2017,09,06,09,01,17.20
2017,09,06,09,02,17.20
2017,09,06,09,03,17.20
2017,09,06,09,04,17.20
2017,09,06,09,05,17.30
2017,09,06,09,06,17.30
2017,09,06,09,07,17.40
2017,09,06,09,08,17.40
2017,09,06,09,09,17.40
2017,09,06,09,10,17.40
2017,09,06,09,11,17.40
2017,09,06,09,12,17.40
2017,09,06,09,13,17.50
2017,09,06,09,14,17.50
2017,09,06,09,15,17.50
2017,09,06,09,16,17.60
2017,09,06,09,17,17.60
2017,09,06,09,18,17.60
2017,09,06,09,19,17.60
2017,09,06,09,20,17.60
2017,09,06,09,21,17.60
2017,09,06,09,22,17.70
2017,09,06,09,23,17.70
2017,09,06,09,24,17.70
2017,09,06,09,25,17.70
2017,09,06,09,26,17.80
2017,09,06,09,27,17.80
2017,09,06,09,28,17.80
2017,09,06,09,29,17.90
2017,09,06,09,30,17.90
2017,09,06,09,31,18.00
2017,09,06,09,32,18.10
2017,09,06,09,33,18.10
2017,09,06,09,34,18.20
2017,09,06,09,35,18.30
2017,09,06,09,36,18.40
2017,09,06,09,37,18.40
2017,09,06,09,38,18.50
2017,09,06,09,39,18.60
2017,09,06,09,40,18.70
2017,09,06,09,41,18.80
2017,09,06,09,42,18.90
2017,09,06,09,43,19.00
2017,09,06,09,44,19.10
2017,09,06,09,45,19.10
2017,09,06,09,46,19.20
2017,09,06,09,47,19.20
2017,09,06,09,48,19.30
2017,09,06,09,49,19.30
2017,09,06,09,50,19.30
2017,09,06,09,51,19.40
2017,09,06,09,52,19.40
2017,09,06,09,53,19.40
2017,09,06,09,54,19.40
2017,09,06,09,55,19.50
2017,09,06,09,56,19.50
2017,09,06,09,57,19.50
2017,09,06,09,58,19.50
2017,09,06,09,59,19.60
2017,09,06,10,00,19.60
2017,09,06,10,01,19.70
2017,09,06,10,02,19.70
2017,09,06,10,03,19.80
2017,09,06,10,04,19.80
2017,09,06,10,05,19.80
2017,09,06,10,06,19.90
2017,09,06,10,07,19.90
2017,09,06,10,08,19.90
2017,09,06,10,09,19.90
2017,09,06,10,10,19.90
2017,09,06,10,11,20.00
2017,09,06,10,12,20.00
2017,09,06,10,13,20.00
2017,09,06,10,14,20.10
2017,09,06,10,15,20.10
2017,09,06,10,16,20.10
2017,09,06,10,17,20.10
2017,09,06,10,18,20.10
2017,09,06,10,19,20.00
2017,09,06,10,20,20.00
2017,09,06,10,21,19.90
2017,09,06,10,22,19.90
2017,09,06,10,23,19.80
2017,09,06,10,24,19.80
2017,09,06,10,25,19.80
2017,09,06,10,26,19.80
2017,09,06,10,27,19.70
2017,09,06,10,28,19.70
2017,09,06,10,29,19.60
2017,09,06,10,30,19.60
2017,09,06,10,31,19.60
2017,09,06,10,32,19.50
2017,09,06,10,33,19.50
2017,09,06,10,34,19.50
2017,09,06,10,35,19.50
2017,09,06,10,36,19.60
2017,09,06,10,37,19.60
2017,09,06,10,38,19.60
2017,09,06,10,39,19.60
2017,09,06,10,40,19.60
2017,09,06,10,41,19.60
2017,09,06,10,42,19.60
2017,09,06,10,43,19.50
2017,09,06,10,44,19.40
2017,09,06,10,45,19.30
2017,09,06,10,46,19.20
2017,09,06,10,47,19.20
2017,09,06,10,48,19.20
2017,09,06,10,49,19.10
2017,09,06,10,50,19.00
2017,09,06,10,51,18.90
2017,09,06,10,52,18.90
2017,09,06,10,53,18.90
2017,09,06,10,54,18.80
2017,09,06,10,55,18.80
2017,09,06,10,56,18.70
2017,09,06,10,57,18.60
2017,09,06,10,58,18.50
2017,09,06,10,59,18.40
2017,09,06,11,00,18.30
2017,09,06,11,01,18.20
2017,09,06,11,02,18.10
2017,09,06,11,03,18.00
2017,09,06,11,04,17.90
2017,09,06,11,05,17.90
2017,09,06,11,06,17.90
2017,09,06,11,07,17.90
2017,09,06,11,08,17.80
2017,09,06,11,09,17.80
2017,09,06,11,10,17.80
2017,09,06,11,11,17.70
2017,09,06,11,12,17.70
2017,09,06,11,13,17.70
2017,09,06,11,14,17.70
2017,09,06,11,15,17.70
2017,09,06,11,16,17.60
2017,09,06,11,17,17.60
2017,09,06,11,18,17.60
2017,09,06,11,19,17.60
2017,09,06,11,20,17.60
2017,09,06,11,21,17.60
2017,09,06,11,22,17.60
2017,09,06,11,23,17.70
2017,09,06,11,24,17.70
2017,09,06,11,25,17.80
2017,09,06,11,26,17.80
2017,09,06,11,27,17.90
2017,09,06,11,28,18.00
2017,09,06,11,29,18.10
2017,09,06,11,30,18.20
2017,09,06,11,31,18.30
2017,09,06,11,32,18.30
2017,09,06,11,33,18.50
2017,09,06,11,34,18.60
2017,09,06,11,35,18.60
2017,09,06,11,36,18.70
2017,09,06,11,37,18.80
2017,09,06,11,38,18.80
2017,09,06,11,39,18.80
2017,09,06,11,40,18.80
2017,09,06,11,41,18.80
2017,09,06,11,42,18.80
2017,09,06,11,43,18.70
2017,09,06,11,44,18.70
2017,09,06,11,45,18.70
2017,09,06,11,46,18.70
2017,09,06,11,47,18.60
2017,09,06,11,48,18.50
2017,09,06,11,49,18.40
2017,09,06,11,50,18.30
2017,09,06,11,51,18.30
2017,09,06,11,52,18.20
2017,09,06,11,53,18.10
2017,09,06,11,54,18.10
2017,09,06,11,55,18.10
2017,09,06,11,56,18.20
2017,09,06,11,57,18.20
2017,09,06,11,58,18.20
2017,09,06,11,59,18.30
2017,09,06,12,00,18.40
2017,09,06,12,01,18.50
2017,09,06,12,02,18.50
2017,09,06,12,03,18.60
2017,09,06,12,04,18.60
2017,09,06,12,05,18.70
2017,09,06,12,06,18.70
2017,09,06,12,07,18.70
2017,09,06,12,08,18.70
2017,09,06,12,09,18.80
2017,09,06,12,10,18.80
2017,09,06,12,11,18.80
2017,09,06,12,12,18.80
2017,09,06,12,13,18.80
2017,09,06,12,14,18.70
2017,09,06,12,15,18.70
2017,09,06,12,16,18.70
2017,09,06,12,17,18.60
2017,09,06,12,18,18.60
2017,09,06,12,19,18.60
2017,09,06,12,20,18.60
2017,09,06,12,21,18.60
2017,09,06,12,22,18.70
2017,09,06,12,23,18.80
2017,09,06,12,24,18.90
2017,09,06,12,25,19.00
2017,09,06,12,26,19.10
2017,09,06,12,27,19.20
2017,09,06,12,28,19.20
2017,09,06,12,29,19.20
2017,09,06,12,30,19.30
2017,09,06,12,31,19.30
2017,09,06,12,32,19.30
2017,09,06,12,33,19.30
2017,09,06,12,34,19.30
2017,09,06,12,35,19.40
2017,09,06,12,36,19.40
2017,09,06,12,37,19.40
2017,09,06,12,38,19.40
2017,09,06,12,39,19.40
2017,09,06,12,40,19.40
2017,09,06,12,41,19.40
2017,09,06,12,42,19.40
2017,09,06,12,43,19.40
2017,09,06,12,44,19.40
2017,09,06,12,45,19.50
2017,09,06,12,46,19.50
2017,09,06,12,47,19.60
2017,09,06,12,48,19.60
2017,09,06,12,49,19.60
2017,09,06,12,50,19.60
2017,09,06,12,51,19.60
2017,09,06,12,52,19.60
2017,09,06,12,53,19.60
2017,09,06,12,54,19.60
2017,09,06,12,55,19.70
2017,09,06,12,56,19.70
2017,09,06,12,57,19.70
2017,09,06,12,58,19.70
2017,09,06,12,59,19.70
2017,09,06,13,00,19.70
2017,09,06,13,01,19.70
2017,09,06,13,02,19.70
2017,09,06,13,03,19.80
2017,09,06,13,04,19.80
2017,09,06,13,05,19.80
2017,09,06,13,06,19.80
2017,09,06,13,07,19.80
2017,09,06,13,08,19.90
2017,09,06,13,09,19.90
2017,09,06,13,10,19.90
2017,09,06,13,11,19.90
2017,09,06,13,12,19.90
2017,09,06,13,13,20.00
2017,09,06,13,14,20.00
2017,09,06,13,15,20.00
2017,09,06,13,16,20.00
2017,09,06,13,17,20.00
2017,09,06,13,18,20.00
2017,09,06,13,19,20.00
2017,09,06,13,20,20.10
2017,09,06,13,21,20.10
2017,09,06,13,22,20.10
2017,09,06,13,23,20.10
2017,09,06,13,24,20.10
2017,09,06,13,25,20.20
2017,09,06,13,26,20.20
2017,09,06,13,27,20.30
2017,09,06,13,28,20.30
2017,09,06,13,29,20.40
2017,09,06,13,30,20.40
2017,09,06,13,31,20.40
2017,09,06,13,32,20.40
2017,09,06,13,33,20.50
2017,09,06,13,34,20.50
2017,09,06,13,35,20.60
2017,09,06,13,36,20.60
2017,09,06,13,37,20.60
2017,09,06,13,38,20.60
2017,09,06,13,39,20.70
2017,09,06,13,40,20.70
2017,09,06,13,41,20.70
2017,09,06,13,42,20.70
2017,09,06,13,43,20.70
2017,09,06,13,44,20.80
2017,09,06,13,45,20.80
2017,09,06,13,46,20.80
2017,09,06,13,47,20.90
2017,09,06,13,48,20.90
2017,09,06,13,49,21.00
2017,09,06,13,50,21.10
2017,09,06,13,51,21.10
2017,09,06,13,52,21.20
2017,09,06,13,53,21.20
2017,09,06,13,54,21.20
2017,09,06,13,55,21.30
2017,09,06,13,56,21.30
2017,09,06,13,57,21.30
2017,09,06,13,58,21.30
2017,09,06,13,59,21.30
2017,09,06,14,00,21.30
2017,09,06,14,01,21.30
2017,09,06,14,02,21.30
2017,09,06,14,03,21.30
2017,09,06,14,04,21.30
2017,09,06,14,05,21.30
2017,09,06,14,06,21.30
2017,09,06,14,07,21.40
2017,09,06,14,08,21.50
2017,09,06,14,09,21.50
2017,09,06,14,10,21.60
2017,09,06,14,11,21.60
2017,09,06,14,12,21.70
2017,09,06,14,13,21.70
2017,09,06,14,14,21.60
2017,09,06,14,15,21.60
2017,09,06,14,16,21.60
2017,09,06,14,17,21.60
2017,09,06,14,18,21.60
2017,09,06,14,19,21.70
2017,09,06,14,20,21.70
2017,09,06,14,21,21.70
2017,09,06,14,22,21.70
2017,09,06,14,23,21.70
2017,09,06,14,24,21.70
2017,09,06,14,25,21.60
2017,09,06,14,26,21.40
2017,09,06,14,27,21.30
2017,09,06,14,28,21.10
2017,09,06,14,29,21.00
2017,09,06,14,30,20.90
2017,09,06,14,31,20.90
2017,09,06,14,32,20.90
2017,09,06,14,33,20.90
2017,09,06,14,34,20.80
2017,09,06,14,35,20.60
2017,09,06,14,36,20.50
2017,09,06,14,37,20.40
2017,09,06,14,38,20.20
2017,09,06,14,39,20.20
2017,09,06,14,40,20.10
2017,09,06,14,41,20.00
2017,09,06,14,42,19.90
2017,09,06,14,43,19.90
2017,09,06,14,44,19.80
2017,09,06,14,45,19.80
2017,09,06,14,46,19.80
2017,09,06,14,47,19.80
2017,09,06,14,48,19.80
2017,09,06,14,49,19.80
2017,09,06,14,50,19.80
2017,09,06,14,51,19.80
2017,09,06,14,52,19.70
2017,09,06,14,53,19.70
2017,09,06,14,54,19.70
2017,09,06,14,55,19.60
2017,09,06,14,56,19.60
2017,09,06,14,57,19.50
2017,09,06,14,58,19.40
2017,09,06,14,59,19.40
2017,09,06,15,00,19.30
2017,09,06,15,01,19.20
2017,09,06,15,02,19.10
2017,09,06,15,03,19.00
2017,09,06,15,04,19.00
2017,09,06,15,05,18.90
2017,09,06,15,06,19.00
2017,09,06,15,07,19.00
2017,09,06,15,08,19.00
2017,09,06,15,09,19.00
2017,09,06,15,10,19.10
2017,09,06,15,11,19.10
2017,09,06,15,12,19.10
2017,09,06,15,13,19.20
2017,09,06,15,14,19.20
2017,09,06,15,15,19.20
2017,09,06,15,16,19.30
2017,09,06,15,17,19.30
2017,09,06,15,18,19.40
2017,09,06,15,19,19.40
2017,09,06,15,20,19.50
2017,09,06,15,21,19.50
2017,09,06,15,22,19.60
2017,09,06,15,23,19.60
2017,09,06,15,24,19.70
2017,09,06,15,25,19.70
2017,09,06,15,26,19.70
2017,09,06,15,27,19.70
2017,09,06,15,28,19.70
2017,09,06,15,29,19.70
2017,09,06,15,30,19.70
2017,09,06,15,31,19.70
2017,09,06,15,32,19.70
2017,09,06,15,33,19.80
2017,09,06,15,34,19.70
2017,09,06,15,35,19.70
2017,09,06,15,36,19.70
2017,09,06,15,37,19.70
2017,09,06,15,38,19.70
2017,09,06,15,39,19.60
2017,09,06,15,40,19.60
2017,09,06,15,41,19.60
2017,09,06,15,42,19.70
2017,09,06,15,43,19.70
2017,09,06,15,44,19.80
2017,09,06,15,45,19.90
2017,09,06,15,46,20.00
2017,09,06,15,47,20.00
2017,09,06,15,48,20.00
2017,09,06,15,49,20.10
2017,09,06,15,50,20.10
2017,09,06,15,51,20.10
2017,09,06,15,52,20.10
2017,09,06,15,53,20.20
2017,09,06,15,54,20.20
2017,09,06,15,55,20.20
2017,09,06,15,56,20.20
2017,09,06,15,57,20.10
2017,09,06,15,58,20.00
2017,09,06,15,59,19.90
2017,09,06,16,00,19.80
2017,09,06,16,01,19.60
2017,09,06,16,02,19.50
2017,09,06,16,03,19.40
2017,09,06,16,04,19.40
2017,09,06,16,05,19.30
2017,09,06,16,06,19.30
2017,09,06,16,07,19.30
2017,09,06,16,08,19.20
2017,09,06,16,09,19.20
2017,09,06,16,10,19.10
2017,09,06,16,11,19.10
2017,09,06,16,12,19.10
2017,09,06,16,13,19.10
2017,09,06,16,14,19.10
2017,09,06,16,15,19.00
2017,09,06,16,16,19.00
2017,09,06,16,17,19.00
2017,09,06,16,18,18.90
2017,09,06,16,19,18.90
2017,09,06,16,20,18.80
2017,09,06,16,21,18.80
2017,09,06,16,22,18.70
2017,09,06,16,23,18.70
2017,09,06,16,24,18.60
2017,09,06,16,25,18.60
2017,09,06,16,26,18.60
2017,09,06,16,27,18.50
2017,09,06,16,28,18.50
2017,09,06,16,29,18.40
2017,09,06,16,30,18.40
2017,09,06,16,31,18.30
2017,09,06,16,32,18.30
2017,09,06,16,33,18.20
2017,09,06,16,34,18.20
2017,09,06,16,35,18.10
2017,09,06,16,36,18.00
2017,09,06,16,37,18.00
2017,09,06,16,38,18.00
2017,09,06,16,39,17.90
2017,09,06,16,40,17.90
2017,09,06,16,41,17.90
2017,09,06,16,42,17.80
2017,09,06,16,43,17.80
2017,09,06,16,44,17.70
2017,09,06,16,45,17.60
2017,09,06,16,46,17.50
2017,09,06,16,47,17.30
2017,09,06,16,48,17.20
2017,09,06,16,49,17.10
2017,09,06,16,50,17.00
2017,09,06,16,51,16.90
2017,09,06,16,52,16.80
2017,09,06,16,53,16.80
2017,09,06,16,54,16.80
2017,09,06,16,55,16.80
2017,09,06,16,56,16.80
2017,09,06,16,57,16.80
2017,09,06,16,58,16.90
2017,09,06,16,59,16.80
2017,09,06,17,00,16.80
2017,09,06,17,01,16.70
2017,09,06,17,02,16.70
2017,09,06,17,03,16.50
2017,09,06,17,04,16.50
2017,09,06,17,05,16.40
2017,09,06,17,06,16.30
2017,09,06,17,07,16.30
2017,09,06,17,08,16.30
2017,09,06,17,09,16.20
2017,09,06,17,10,16.20
2017,09,06,17,11,16.20
2017,09,06,17,12,16.20
2017,09,06,17,13,16.20
2017,09,06,17,14,16.30
2017,09,06,17,15,16.30
2017,09,06,17,16,16.20
2017,09,06,17,17,16.10
2017,09,06,17,18,16.00
2017,09,06,17,19,16.00